Location: Fort Worth, Tx
(32.7431°N, 97.3695°W)
Time: 17:14:58
(UTC-04:00)

Transit 4A - Pass Details

Date: 06 March 2024
Orbit: 871 x 972 km, 66.8° (Epoch: 21 April)

Event Time Altitude Azimuth Distance (km) Brightness Sun altitude
Rises 00:07:18 0° 207° (SSW) 3,615 - -55.1°
Reaches altitude 10° 00:09:51 10° 208° (SSW) 2,660 - -55.5°
Maximum altitude 00:16:04 80° 295° (WNW) 946 - -56.3°
Drops below altitude 10° 00:22:08 10° 23° (NNE) 2,603 - -57.2°
Sets 00:24:38 0° 25° (NNE) 3,533 - -57.5°
